FW0468 Weather Reports


time (UTC)temp
C
wind
direction
speed
KPH
gust
KPH
rain 1hr
cm
rain 24hr
cm
rain mn
cm
humidity
%
barometer
mb
20260906134531 26 136 0.0 4.8 0.00 0.00 0.00 80 1013.9
20260906133031 26 101 1.6 3.2 0.00 0.00 0.00 84 1013.6
20260906131504 25 155 1.6 6.4 0.00 0.00 0.00 88 1013.7
20260906130013 24 175 1.6 4.8 0.00 0.00 0.00 91 1013.8
20260906124512 23 360 3.2 4.8 0.00 0.00 0.00 91 1013.9
20260906123023 23 360 0.0 0.0 0.00 0.00 0.00 91 1013.8
20260906121534 23 360 1.6 3.2 0.00 0.00 0.00 90 1013.7
20260906120009 23 360 0.0 0.0 0.00 0.00 0.00 90 1013.7
20260906114517 23 360 0.0 0.0 0.00 0.00 0.00 90 1013.5
20260906113020 23 360 0.0 3.2 0.00 0.00 0.00 90 1013.6
20260906111530 23 360 0.0 3.2 0.00 0.00 0.00 90 1013.7
20260906110006 23 360 0.0 3.2 0.00 0.00 0.00 91 1013.7
20260906104509 23 360 0.0 3.2 0.00 0.00 0.00 91 1013.7
20260906103017 23 360 0.0 0.0 0.00 0.00 0.00 91 1013.3
20260906101529 23 360 0.0 0.0 0.00 0.00 0.00 91 1013.2
20260906100032 23 360 0.0 3.2 0.00 0.00 0.00 90 1013.2
20260906094507 23 360 1.6 3.2 0.00 0.00 0.00 90 1013.1
20260906093015 23 360 1.6 3.2 0.00 0.00 0.00 90 1013.1
20260906091525 23 360 0.0 3.2 0.00 0.00 0.00 91 1013.1
20260906090027 23 360 0.0 0.0 0.00 0.00 0.00 91 1013.3
20260906084528 23 360 0.0 1.6 0.00 0.00 0.00 91 1013.3
20260906083010 23 360 0.0 3.2 0.00 0.00 0.00 90 1013.3
20260906081521 23 360 0.0 0.0 0.00 0.00 0.00 90 1013.2
20260906080029 23 360 3.2 3.2 0.00 0.00 0.00 90 1013.0
20260906074527 23 360 1.6 3.2 0.00 0.00 0.00 91 1013.1
20260906073033 23 360 0.0 1.6 0.00 0.00 0.00 90 1013.1
20260906071524 23 360 0.0 1.6 0.00 0.00 0.00 90 1013.0
20260906070019 23 360 0.0 3.2 0.00 0.00 0.00 90 1012.7
20260906064530 24 360 0.0 3.2 0.00 0.00 0.00 90 1012.8
20260906063030 24 360 0.0 3.2 0.00 0.00 0.00 90 1012.7
20260906061533 24 360 4.8 6.4 0.00 0.00 0.00 90 1013.1
20260906060021 23 360 0.0 4.8 0.00 0.00 0.00 90 1013.9
20260906054504 23 360 3.2 3.2 0.00 0.00 0.00 90 1013.8
20260906053006 23 360 0.0 3.2 0.00 0.00 0.00 89 1013.8
20260906051514 23 360 0.0 3.2 0.00 0.00 0.00 89 1013.9
20260906050019 24 360 1.6 4.8 0.00 0.00 0.00 89 1013.7
20260906044523 23 360 0.0 1.6 0.00 0.00 0.00 88 1013.8
20260906043013 24 360 0.0 3.2 0.00 0.00 0.00 88 1013.9
20260906041508 24 360 0.0 3.2 0.00 0.00 0.00 88 1013.8
20260906040012 24 360 1.6 3.2 0.00 0.00 0.00 87 1013.9
20260906034533 25 360 1.6 3.2 0.00 0.00 0.00 87 1013.8
20260906033031 25 360 0.0 3.2 0.00 0.00 0.00 86 1014.0
20260906031510 25 360 1.6 3.2 0.00 0.00 0.00 86 1013.9
20260906030009 25 360 0.0 0.0 0.00 0.00 0.00 87 1013.9
20260906024519 25 360 0.0 0.0 0.00 0.00 0.00 87 1014.1
20260906023028 25 360 0.0 0.0 0.00 0.00 0.00 86 1013.7
20260906021537 25 360 0.0 0.0 0.00 0.00 0.00 85 1013.6
20260906020010 25 360 0.0 0.0 0.00 0.00 0.00 84 1013.3
20260906014511 25 360 0.0 0.0 0.00 0.00 0.00 84 1013.0
20260906013020 25 360 0.0 0.0 0.00 0.00 0.00 83 1012.8
20260906011523 26 360 0.0 3.2 0.00 0.00 0.00 82 1012.7
20260906010008 26 217 0.0 3.2 0.00 0.00 0.00 80 1012.4
20260906004512 26 217 1.6 3.2 0.00 0.00 0.00 78 1012.3
20260906003016 27 267 0.0 3.2 0.00 0.00 0.00 77 1012.4
20260906001541 27 284 1.6 4.8 0.00 0.00 0.00 76 1012.4
20260906000027 28 226 3.2 8.0 0.00 0.00 0.00 74 1012.6
20260905234509 28 242 3.2 14.5 0.00 0.00 0.00 72 1012.7
20260905233018 28 234 8.0 16.1 0.00 0.00 0.00 71 1012.8
20260905231527 28 221 8.0 12.9 0.00 0.00 0.00 72 1012.7
20260905230034 29 236 6.4 14.5 0.00 0.00 0.00 72 1012.7
20260905224532 30 226 8.0 17.7 0.00 0.00 0.00 70 1012.5
20260905223030 30 219 3.2 17.7 0.00 0.00 0.00 68 1012.5
20260905221522 30 241 8.0 20.9 0.00 0.00 0.00 69 1012.7
20260905220024 30 226 6.4 14.5 0.00 0.00 0.00 68 1012.5
20260905214510 31 204 11.3 17.7 0.00 0.00 0.00 67 1012.5
20260905213008 31 181 8.0 14.5 0.00 0.00 0.00 66 1012.7
20260905211520 31 189 11.3 14.5 0.00 0.00 0.00 66 1012.9
20260905210037 31 196 6.4 11.3 0.00 0.00 0.00 66 1012.8
20260905204530 30 194 4.8 12.9 0.00 0.00 0.00 66 1013.0
20260905203008 31 187 8.0 17.7 0.00 0.00 0.00 65 1013.1
20260905201521 31 187 9.7 16.1 0.00 0.00 0.00 65 1013.3
20260905200023 31 261 11.3 17.7 0.00 0.00 0.00 66 1013.3
20260905194526 31 213 6.4 20.9 0.00 0.00 0.00 67 1013.5
20260905193035 31 234 9.7 17.7 0.00 0.00 0.00 64 1013.5
20260905191511 31 140 8.0 16.1 0.00 0.00 0.00 66 1013.5
20260905190018 31 167 3.2 19.3 0.00 0.00 0.00 68 1013.9
20260905184534 31 201 8.0 14.5 0.00 0.00 0.00 68 1014.1
20260905183037 30 205 6.4 14.5 0.00 0.00 0.00 68 1014.4
20260905181535 30 187 6.4 17.7 0.00 0.00 0.00 70 1014.8
20260905180012 30 192 9.7 19.3 0.00 0.00 0.00 71 1015.0
20260905174522 28 148 8.0 19.3 0.00 0.00 0.00 73 1015.2
20260905173040 28 206 6.4 14.5 0.00 0.00 0.00 74 1015.3
20260905171529 28 218 11.3 20.9 0.00 0.00 0.00 72 1015.4
20260905170013 30 155 9.7 25.7 0.00 0.00 0.00 70 1015.4
20260905164521 30 223 12.9 22.5 0.00 0.00 0.00 69 1015.5
20260905163024 30 180 9.7 20.9 0.00 0.00 0.00 70 1015.6
20260905161527 30 250 8.0 20.9 0.00 0.00 0.00 69 1015.7
20260905160029 30 216 6.4 16.1 0.00 0.00 0.00 68 1015.8
20260905154514 30 282 3.2 4.8 0.00 0.00 0.00 66 1015.6
20260905153028 30 255 4.8 9.7 0.00 0.00 0.00 67 1015.4
20260905151527 30 213 1.6 4.8 0.00 0.00 0.00 70 1015.4
20260905150030 29 352 0.0 6.4 0.00 0.00 0.00 71 1015.4
20260905144542 28 350 1.6 6.4 0.00 0.00 0.00 71 1015.4
20260905143030 28 352 0.0 3.2 0.00 0.00 0.00 73 1015.5
20260905141525 28 302 1.6 6.4 0.00 0.00 0.00 74 1015.4
20260905140033 27 337 3.2 6.4 0.00 0.00 0.00 77 1015.5